When you browse on this site, cookies collect data to enhance your experience and personalize the content and advertising you see.
Visit our Privacy Policy to learn more. By continuing to use the site, you agree to this use of cookies and data.
  • In Czech Republic
  • List of Countries
  • For 7 days
  • Water Temperature
  • Weather Map
  • Weather Widgets
  • user-avatar
    Login

    Hourly Weather Canberra

    Today, 20 August, Tuesday

    Time Temperature Precipitation Wind Pressure Humidity
    00:00 0°C° 0 mm 4 mps 713 mmHg 90%
    01:00 0°C° 0 mm 4 mps 713 mmHg 90%
    02:00 0°C° 0 mm 4 mps 713 mmHg 91%
    03:00 0°C° 0 mm 4 mps 713 mmHg 91%
    04:00 0°C° 0 mm 4 mps 712 mmHg 93%
    05:00 0°C° 0 mm 4 mps 712 mmHg 93%
    06:00 0°C° 0 mm 4 mps 713 mmHg 93%
    07:00 0°C° 0 mm 4 mps 713 mmHg 93%
    08:00 +2°C° 0 mm 5 mps 713 mmHg 84%
    09:00 +5°C° 0 mm 5 mps 713 mmHg 74%
    10:00 +7°C° 0 mm 5 mps 714 mmHg 64%
    11:00 +7°C° 0 mm 6 mps 713 mmHg 62%
    12:00 +8°C° 0 mm 6 mps 713 mmHg 60%
    13:00 +9°C° 0 mm 6 mps 713 mmHg 58%
    14:00 +9°C° 0 mm 6 mps 712 mmHg 60%
    15:00 +8°C° 0 mm 7 mps 712 mmHg 63%
    16:00 +8°C° 0 mm 7 mps 711 mmHg 65%
    17:00 +7°C° 0 mm 6 mps 711 mmHg 70%
    18:00 +5°C° 0 mm 6 mps 711 mmHg 74%
    19:00 +5°C° 0 mm 6 mps 711 mmHg 78%
    20:00 +5°C° 0 mm 6 mps 711 mmHg 79%
    21:00 +5°C° 0 mm 6 mps 711 mmHg 79%
    22:00 +6°C° 0 mm 7 mps 711 mmHg 80%
    23:00 +6°C° 0 mm 7 mps 710 mmHg 80%

    Tomorrow, 21 August, Wednesday

    Time Temperature Precipitation Wind Pressure Humidity
    00:00 +6°C° 0 mm 7 mps 710 mmHg 79%
    01:00 +6°C° 0 mm 7 mps 710 mmHg 78%
    02:00 +6°C° 0 mm 7 mps 709 mmHg 79%
    03:00 +5°C° 0 mm 7 mps 708 mmHg 80%
    04:00 +5°C° 0 mm 7 mps 708 mmHg 80%
    05:00 +5°C° 0 mm 6 mps 708 mmHg 79%
    06:00 +5°C° 0 mm 6 mps 708 mmHg 79%
    07:00 +6°C° 0 mm 5 mps 708 mmHg 78%
    08:00 +8°C° 0 mm 6 mps 708 mmHg 72%
    09:00 +9°C° 0 mm 7 mps 708 mmHg 66%
    10:00 +10°C° 0 mm 7 mps 709 mmHg 59%
    11:00 +11°C° 0 mm 7 mps 708 mmHg 58%
    12:00 +11°C° 0 mm 7 mps 708 mmHg 56%
    13:00 +12°C° 0 mm 7 mps 707 mmHg 54%
    14:00 +11°C° 0 mm 7 mps 707 mmHg 56%
    15:00 +11°C° 0 mm 7 mps 707 mmHg 59%
    16:00 +10°C° 0 mm 6 mps 707 mmHg 61%
    17:00 +9°C° 0 mm 6 mps 707 mmHg 67%
    18:00 +8°C° 0 mm 5 mps 707 mmHg 73%
    19:00 +6°C° 0 mm 5 mps 707 mmHg 79%
    20:00 +6°C° 0 mm 5 mps 707 mmHg 78%
    21:00 +6°C° 0 mm 5 mps 708 mmHg 78%
    22:00 +5°C° 0 mm 5 mps 708 mmHg 78%
    23:00 +5°C° 0 mm 5 mps 707 mmHg 78%

    Day after tomorrow, 22 August, Thursday

    Time Temperature Precipitation Wind Pressure Humidity
    00:00 +5°C° 0 mm 5 mps 707 mmHg 77%
    01:00 +5°C° 0 mm 5 mps 706 mmHg 77%
    02:00 +6°C° 0 mm 5 mps 706 mmHg 76%
    03:00 +6°C° 0 mm 5 mps 706 mmHg 76%
    04:00 +7°C° 0 mm 5 mps 705 mmHg 75%
    05:00 +7°C° 0 mm 5 mps 706 mmHg 75%
    06:00 +7°C° 0 mm 5 mps 706 mmHg 74%
    07:00 +6°C° 0 mm 4 mps 707 mmHg 74%
    08:00 +8°C° 0 mm 5 mps 707 mmHg 63%
    09:00 +9°C° 0 mm 5 mps 708 mmHg 52%
    10:00 +10°C° 0 mm 6 mps 709 mmHg 41%
    11:00 +12°C° 0 mm 5 mps 709 mmHg 38%
    12:00 +13°C° 0 mm 5 mps 709 mmHg 35%
    13:00 +13°C° 0 mm 4 mps 709 mmHg 32%
    14:00 +13°C° 0 mm 4 mps 709 mmHg 33%
    15:00 +12°C° 0 mm 4 mps 709 mmHg 35%
    16:00 +12°C° 0 mm 3 mps 710 mmHg 36%
    17:00 +9°C° 0 mm 3 mps 710 mmHg 44%
    18:00 +7°C° 0 mm 2 mps 711 mmHg 51%
    19:00 +5°C° 0 mm 1 mps 711 mmHg 58%
    20:00 +4°C° 0 mm 1 mps 712 mmHg 63%
    21:00 +3°C° 0 mm 1 mps 712 mmHg 68%
    22:00 +2°C° 0 mm 1 mps 713 mmHg 73%
    23:00 +2°C° 0 mm 1 mps 713 mmHg 76%

    23 August, Friday

    Time Temperature Precipitation Wind Pressure Humidity
    00:00 +1°C° 0 mm 1 mps 713 mmHg 79%
    01:00 +1°C° 0 mm 1 mps 713 mmHg 83%
    02:00 0°C° 0 mm 1 mps 713 mmHg 82%
    03:00 0°C° 0 mm 1 mps 713 mmHg 82%
    04:00 0°C° 0 mm 1 mps 713 mmHg 82%
    05:00 -1°C° 0 mm 0 mps 713 mmHg 79%
    06:00 -1°C° 0 mm 0 mps 713 mmHg 75%
    07:00 -1°C° 0 mm 0 mps 714 mmHg 71%
    08:00 +3°C° 0 mm 1 mps 714 mmHg 61%
    09:00 +7°C° 0 mm 1 mps 714 mmHg 51%
    10:00 +9°C° 0 mm 2 mps 714 mmHg 41%
    11:00 +11°C° 0 mm 3 mps 714 mmHg 41%
    12:00 +12°C° 0 mm 3 mps 713 mmHg 40%
    13:00 +13°C° 0 mm 4 mps 712 mmHg 40%
    14:00 +13°C° 0 mm 4 mps 712 mmHg 43%
    15:00 +13°C° 0 mm 4 mps 712 mmHg 47%
    16:00 +12°C° 0 mm 5 mps 712 mmHg 50%
    17:00 +10°C° 0 mm 4 mps 712 mmHg 60%
    18:00 +8°C° 0 mm 3 mps 712 mmHg 71%
    19:00 +4°C° 0 mm 3 mps 712 mmHg 81%
    20:00 +5°C° 0 mm 2 mps 711 mmHg 83%
    21:00 +4°C° 0 mm 2 mps 711 mmHg 84%
    22:00 +3°C° 0 mm 2 mps 711 mmHg 86%
    23:00 +3°C° 0 mm 2 mps 711 mmHg 86%

    24 August, Saturday

    Time Temperature Precipitation Wind Pressure Humidity
    00:00 +2°C° 0 mm 2 mps 710 mmHg 87%
    01:00 +2°C° 0 mm 2 mps 710 mmHg 88%
    02:00 +2°C° 0 mm 2 mps 710 mmHg 87%
    03:00 +1°C° 0 mm 3 mps 709 mmHg 87%
    04:00 +1°C° 0 mm 3 mps 709 mmHg 87%
    05:00 +1°C° 0 mm 3 mps 709 mmHg 87%
    06:00 +1°C° 0 mm 3 mps 709 mmHg 86%
    07:00 +1°C° 0 mm 3 mps 709 mmHg 86%
    08:00 +4°C° 0 mm 4 mps 709 mmHg 76%
    09:00 +7°C° 0 mm 5 mps 709 mmHg 65%
    10:00 +10°C° 0 mm 7 mps 709 mmHg 55%
    11:00 +11°C° 0 mm 7 mps 709 mmHg 53%
    12:00 +12°C° 0 mm 8 mps 708 mmHg 52%
    13:00 +13°C° 0 mm 8 mps 708 mmHg 50%
    14:00 +13°C° 0 mm 8 mps 708 mmHg 53%
    15:00 +12°C° 0 mm 7 mps 707 mmHg 56%
    16:00 +12°C° 0 mm 7 mps 707 mmHg 59%
    17:00 +10°C° 0 mm 5 mps 708 mmHg 68%
    18:00 +8°C° 0 mm 4 mps 708 mmHg 76%
    19:00 +8°C° 0 mm 3 mps 709 mmHg 85%
    20:00 +7°C° 0 mm 2 mps 709 mmHg 88%
    21:00 +6°C° 0 mm 2 mps 710 mmHg 90%
    22:00 +6°C° 0 mm 1 mps 710 mmHg 93%
    23:00 +5°C° 0 mm 1 mps 711 mmHg 93%

    25 August, Sunday

    Time Temperature Precipitation Wind Pressure Humidity
    00:00 +4°C° 0 mm 1 mps 711 mmHg 94%
    01:00 +4°C° 0 mm 1 mps 711 mmHg 94%
    02:00 +3°C° 0 mm 1 mps 711 mmHg 94%
    03:00 +2°C° 0 mm 1 mps 711 mmHg 94%
    04:00 +2°C° 0 mm 1 mps 711 mmHg 95%
    05:00 +1°C° 0 mm 1 mps 712 mmHg 93%
    06:00 +1°C° 0 mm 1 mps 712 mmHg 92%
    07:00 +1°C° 0 mm 1 mps 713 mmHg 91%
    08:00 +3°C° 0 mm 2 mps 713 mmHg 79%
    09:00 +5°C° 0 mm 2 mps 713 mmHg 66%
    10:00 +8°C° 0 mm 2 mps 714 mmHg 54%
    11:00 +9°C° 0 mm 2 mps 713 mmHg 51%
    12:00 +10°C° 0 mm 2 mps 713 mmHg 49%
    13:00 +12°C° 0 mm 2 mps 713 mmHg 47%
    14:00 +12°C° 0 mm 2 mps 713 mmHg 48%
    15:00 +10°C° 0 mm 2 mps 712 mmHg 50%
    16:00 +10°C° 0 mm 2 mps 712 mmHg 52%
    17:00 +8°C° 0 mm 2 mps 712 mmHg 61%
    18:00 +6°C° 0 mm 2 mps 713 mmHg 70%
    19:00 +4°C° 0 mm 2 mps 713 mmHg 79%
    20:00 +3°C° 0 mm 2 mps 714 mmHg 82%
    21:00 +3°C° 0 mm 2 mps 714 mmHg 85%
    22:00 +2°C° 0 mm 2 mps 714 mmHg 88%
    23:00 +2°C° 0 mm 2 mps 714 mmHg 89%
    Show more